Ogdensburg, NY

7:47 AM EDT on October 15, 2019 (GMT -0400)
Ogdensburg International

Weather History for KOGS - September, 2019

Change the Weather History Date:

Wednesday, September 18, 2019

  Actual Average Record
Temperature  
Mean Temperature 54 °F -  
Max Temperature 69 °F 68 °F 86 °F (1932)
Min Temperature 39 °F 47 °F 36 °F (1943)
Degree Days  
Heating Degree Days 11    
Growing Degree Days 4 (Base 50)    
Moisture  
Dew Point 46 °F    
Average Humidity 77    
Maximum Humidity 100    
Minimum Humidity 43    
Precipitation  
Precipitation 0.00 in - - ()
Sea Level Pressure  
Sea Level Pressure 30.27 in    
Wind  
Wind Speed 2 mph ()    
Max Wind Speed 10 mph    
Max Gust Speed 13 mph    
Visibility 9.9 miles    
Events      
Averages and records for this station are not official NWS values.
T = Trace of Precipitation, MM = Missing Value Source: Averaged Metar Reports

Daily Weather History Graph

Daily Weather History Graph

Search for Another Location

Airport or City:

Astronomy

Sep. 18, 2019 Rise Set
Actual Time 6:43 AM EDT 7:07 PM EDT
Civil Twilight 6:14 AM EDT 7:36 PM EDT
Nautical Twilight 5:40 AM EDT 8:10 PM EDT
Astronomical Twilight 5:04 AM EDT 8:46 PM EDT
Moon 9:30 PM EDT (9/18) 10:53 AM EDT (9/18)
Length of Visible Light 13h 21m
Length of Day
12h 23m
Waning Gibbous, 82% of the Moon is Illuminated
Sep 18
Waning Gibbous
Sep 21
Last Quarter
Sep 28
New
Oct 5
First Quarter
Oct 13
Full

Hourly Weather History & Observations

Time (EDT) Temp. Dew Point Humidity Pressure Visibility Wind Dir Wind Speed Gust Speed Precip Events Conditions
12:15 AM 42.8 °F 42.8 °F 100% 30.21 in 10.0 mi Calm Calm - N/A   Clear
12:35 AM 42.8 °F 42.8 °F 100% 30.20 in 10.0 mi Calm Calm - N/A   Clear
12:55 AM 42.8 °F 42.8 °F 100% 30.22 in 10.0 mi Calm Calm - N/A   Clear
1:15 AM 42.8 °F 42.8 °F 100% 30.22 in 5.0 mi Calm Calm - N/A   Clear
1:35 AM 42.8 °F 41.0 °F 93% 30.23 in 10.0 mi Calm Calm - N/A   Clear
1:55 AM 42.8 °F 41.0 °F 93% 30.23 in 10.0 mi Calm Calm - N/A   Clear
2:15 AM 41.0 °F 41.0 °F 100% 30.23 in 9.0 mi Calm Calm - N/A   Clear
2:35 AM 41.0 °F 41.0 °F 100% 30.23 in 8.0 mi Calm Calm - N/A   Clear
2:55 AM 41.0 °F 41.0 °F 100% 30.23 in 10.0 mi Calm Calm - N/A   Clear
3:15 AM 41.0 °F 39.2 °F 93% 30.24 in 10.0 mi Calm Calm - N/A   Clear
3:35 AM 39.2 °F 39.2 °F 100% 30.24 in 10.0 mi Calm Calm - N/A   Clear
3:55 AM 39.2 °F 39.2 °F 100% 30.24 in 10.0 mi Calm Calm - N/A   Clear
4:15 AM 41.0 °F 39.2 °F 93% 30.25 in 10.0 mi Calm Calm - N/A   Mostly Cloudy
4:35 AM 42.8 °F 41.0 °F 93% 30.25 in 10.0 mi Calm Calm - N/A   Overcast
4:55 AM 41.0 °F 41.0 °F 100% 30.26 in 10.0 mi Calm Calm - N/A   Mostly Cloudy
5:15 AM 41.0 °F 41.0 °F 100% 30.26 in 10.0 mi Calm Calm - N/A   Partly Cloudy
5:35 AM 41.0 °F 41.0 °F 100% 30.26 in 10.0 mi Calm Calm - N/A   Scattered Clouds
5:55 AM 41.0 °F 41.0 °F 100% 30.26 in 10.0 mi Calm Calm - N/A   Mostly Cloudy
6:15 AM 42.8 °F 42.8 °F 100% 30.27 in 10.0 mi Calm Calm - N/A   Overcast
6:35 AM 44.6 °F 42.8 °F 93% 30.28 in 10.0 mi Calm Calm - N/A   Overcast
6:55 AM 44.6 °F 44.6 °F 100% 30.30 in 10.0 mi Calm Calm - N/A   Overcast
7:15 AM 46.4 °F 44.6 °F 93% 30.30 in 10.0 mi Calm Calm - N/A   Overcast
7:35 AM 46.4 °F 46.4 °F 100% 30.30 in 10.0 mi Calm Calm - N/A   Mostly Cloudy
7:55 AM 48.2 °F 46.4 °F 93% 30.30 in 10.0 mi Variable 3.5 mph - N/A   Mostly Cloudy
8:15 AM 50.0 °F 48.2 °F 94% 30.30 in 10.0 mi Calm Calm - N/A   Scattered Clouds
8:35 AM 50.0 °F 48.2 °F 94% 30.30 in 10.0 mi Calm Calm - N/A   Partly Cloudy
8:55 AM 53.6 °F 48.2 °F 82% 30.31 in 10.0 mi ESE 5.8 mph - N/A   Mostly Cloudy
9:15 AM 55.4 °F 50.0 °F 82% 30.31 in 10.0 mi Calm Calm - N/A   Mostly Cloudy
9:35 AM 55.4 °F 50.0 °F 82% 30.31 in 10.0 mi ESE 4.6 mph - N/A   Mostly Cloudy
9:55 AM 59.0 °F 48.2 °F 67% 30.31 in 10.0 mi East 5.8 mph - N/A   Clear
10:15 AM 62.6 °F 50.0 °F 63% 30.30 in 10.0 mi East 8.1 mph - N/A   Clear
10:35 AM 62.6 °F 48.2 °F 59% 30.30 in 10.0 mi Variable 4.6 mph - N/A   Clear
10:55 AM 64.4 °F 48.2 °F 56% 30.30 in 10.0 mi Variable 5.8 mph 11.5 mph N/A   Clear
11:15 AM 64.4 °F 48.2 °F 56% 30.30 in 10.0 mi Variable 5.8 mph - N/A   Clear
11:35 AM 66.2 °F 46.4 °F 49% 30.30 in 10.0 mi Variable 4.6 mph - N/A   Clear
11:55 AM 66.2 °F 46.4 °F 49% 30.30 in 10.0 mi Variable 6.9 mph - N/A   Clear
12:15 PM 68.0 °F 48.2 °F 49% 30.30 in 10.0 mi East 5.8 mph - N/A   Clear
12:35 PM 68.0 °F 48.2 °F 49% 30.30 in 10.0 mi East 8.1 mph - N/A   Clear
12:55 PM 68.0 °F 48.2 °F 49% 30.30 in 10.0 mi Variable 5.8 mph 12.7 mph N/A   Clear
1:15 PM 68.0 °F 48.2 °F 49% 30.30 in 10.0 mi ENE 10.4 mph - N/A   Clear
1:35 PM 68.0 °F 46.4 °F 46% 30.30 in 10.0 mi Variable 5.8 mph 11.5 mph N/A   Clear
1:55 PM 68.0 °F 46.4 °F 46% 30.30 in 10.0 mi Variable 6.9 mph - N/A   Clear
2:15 PM 69.8 °F 48.2 °F 46% 30.29 in 10.0 mi ENE 8.1 mph - N/A   Clear
2:35 PM 69.8 °F 46.4 °F 43% 30.28 in 10.0 mi Variable 3.5 mph 12.7 mph N/A   Clear
2:55 PM 69.8 °F 46.4 °F 43% 30.29 in 10.0 mi Variable 5.8 mph - N/A   Clear
3:15 PM 69.8 °F 46.4 °F 43% 30.28 in 10.0 mi Calm Calm - N/A   Clear
3:35 PM 69.8 °F 48.2 °F 46% 30.28 in 10.0 mi NE 5.8 mph - N/A   Clear
3:55 PM 69.8 °F 48.2 °F 46% 30.28 in 10.0 mi Variable 5.8 mph 11.5 mph N/A   Clear
4:15 PM 69.8 °F 48.2 °F 46% 30.27 in 10.0 mi Variable 4.6 mph - N/A   Clear
4:35 PM 69.8 °F 48.2 °F 46% 30.27 in 10.0 mi East 5.8 mph - N/A   Clear
4:55 PM 69.8 °F 48.2 °F 46% 30.27 in 10.0 mi Variable 4.6 mph - N/A   Clear
5:15 PM 68.0 °F 50.0 °F 52% 30.26 in 10.0 mi North 5.8 mph - N/A   Clear
5:35 PM 68.0 °F 50.0 °F 52% 30.27 in 10.0 mi NNE 5.8 mph - N/A   Clear
5:55 PM 66.2 °F 50.0 °F 56% 30.26 in 10.0 mi Variable 5.8 mph - N/A   Clear
6:15 PM 64.4 °F 51.8 °F 64% 30.27 in 10.0 mi NNE 4.6 mph - N/A   Clear
6:35 PM 62.6 °F 50.0 °F 63% 30.27 in 10.0 mi NNE 4.6 mph - N/A   Clear
6:55 PM 60.8 °F 50.0 °F 68% 30.27 in 10.0 mi NE 3.5 mph - N/A   Clear
7:15 PM 55.4 °F 50.0 °F 82% 30.28 in 10.0 mi Calm Calm - N/A   Clear
7:35 PM 55.4 °F 50.0 °F 82% 30.28 in 10.0 mi NE 3.5 mph - N/A   Clear
7:55 PM 51.8 °F 48.2 °F 88% 30.28 in 10.0 mi ENE 4.6 mph - N/A   Clear
8:15 PM 50.0 °F 48.2 °F 94% 30.29 in 10.0 mi Calm Calm - N/A   Clear
8:35 PM 50.0 °F 48.2 °F 94% 30.29 in 10.0 mi Calm Calm - N/A   Clear
8:55 PM 50.0 °F 46.4 °F 87% 30.28 in 10.0 mi Calm Calm - N/A   Clear
9:15 PM 51.8 °F 46.4 °F 82% 30.28 in 10.0 mi Variable 4.6 mph - N/A   Clear
9:35 PM 50.0 °F 46.4 °F 87% 30.28 in 10.0 mi Variable 4.6 mph - N/A   Clear
9:55 PM 50.0 °F 46.4 °F 87% 30.28 in 10.0 mi Calm Calm - N/A   Clear
10:15 PM 48.2 °F 46.4 °F 93% 30.28 in 10.0 mi Calm Calm - N/A   Clear
10:35 PM 48.2 °F 46.4 °F 93% 30.28 in 10.0 mi Variable 4.6 mph - N/A   Clear
10:55 PM 50.0 °F 44.6 °F 82% 30.28 in 10.0 mi Calm Calm - N/A   Clear
11:15 PM 46.4 °F 44.6 °F 93% 30.28 in 10.0 mi Calm Calm - N/A   Clear
11:35 PM 46.4 °F 44.6 °F 93% 30.28 in 10.0 mi Calm Calm - N/A   Clear
11:55 PM 44.6 °F 42.8 °F 93% 30.28 in 10.0 mi Calm Calm - N/A   Clear